When you browse on this site, cookies collect data to enhance your experience and personalize the content and advertising you see.
Visit our Privacy Policy to learn more. By continuing to use the site, you agree to this use of cookies and data.
  • In Hungary
  • List of Countries
  • For 7 days
  • Water Temperature
  • Weather Map
  • News
  • Weather Widgets
  • user-avatar
    Login

    Hourly Weather Wels

    Today, 8 December, Sunday

    Time Temperature Precipitation Wind Pressure Humidity
    00:00 +5°C° 0 mm 2 mps 736 mmHg 91%
    01:00 +5°C° 0 mm 2 mps 736 mmHg 91%
    02:00 +5°C° 0 mm 2 mps 736 mmHg 91%
    03:00 +5°C° 0 mm 2 mps 735 mmHg 91%
    04:00 +4°C° 0 mm 2 mps 734 mmHg 90%
    05:00 +4°C° 0 mm 2 mps 735 mmHg 90%
    06:00 +4°C° 0 mm 2 mps 735 mmHg 89%
    07:00 +5°C° 0 mm 1 mps 735 mmHg 88%
    08:00 +5°C° 0 mm 1 mps 734 mmHg 86%
    09:00 +6°C° 0 mm 1 mps 734 mmHg 84%
    10:00 +7°C° 0 mm 1 mps 733 mmHg 82%
    11:00 +8°C° 0 mm 1 mps 733 mmHg 80%
    12:00 +8°C° 0 mm 1 mps 732 mmHg 79%
    13:00 +9°C° 0 mm 1 mps 731 mmHg 78%
    14:00 +8°C° 0 mm 1 mps 731 mmHg 81%
    15:00 +7°C° 0 mm 1 mps 731 mmHg 83%
    16:00 +6°C° 0 mm 1 mps 731 mmHg 86%
    17:00 +6°C° 0 mm 1 mps 730 mmHg 84%
    18:00 +6°C° 0 mm 1 mps 730 mmHg 82%
    19:00 +6°C° 0 mm 1 mps 730 mmHg 80%
    20:00 +6°C° 0 mm 1 mps 730 mmHg 79%
    21:00 +6°C° 0 mm 1 mps 729 mmHg 78%
    22:00 +5°C° 0 mm 1 mps 729 mmHg 77%
    23:00 +6°C° 0 mm 1 mps 728 mmHg 76%

    Tomorrow, 9 December, Monday

    Time Temperature Precipitation Wind Pressure Humidity
    00:00 +6°C° 0 mm 1 mps 728 mmHg 76%
    01:00 +5°C° 0 mm 0 mps 728 mmHg 75%
    02:00 +7°C° 0.1 mm 1 mps 728 mmHg 77%
    03:00 +7°C° 0.1 mm 1 mps 727 mmHg 79%
    04:00 +6°C° 0.1 mm 2 mps 727 mmHg 81%
    05:00 +6°C° 0.6 mm 2 mps 727 mmHg 84%
    06:00 +5°C° 0.6 mm 3 mps 728 mmHg 87%
    07:00 +5°C° 0.6 mm 3 mps 728 mmHg 90%
    08:00 +5°C° 0.4 mm 3 mps 728 mmHg 87%
    09:00 +7°C° 0.4 mm 3 mps 728 mmHg 83%
    10:00 +6°C° 0.4 mm 4 mps 728 mmHg 79%
    11:00 +7°C° 0 mm 3 mps 728 mmHg 76%
    12:00 +8°C° 0 mm 2 mps 727 mmHg 73%
    13:00 +9°C° 0 mm 1 mps 727 mmHg 70%
    14:00 +8°C° 0 mm 2 mps 727 mmHg 72%
    15:00 +7°C° 0 mm 2 mps 726 mmHg 74%
    16:00 +6°C° 0 mm 2 mps 726 mmHg 77%
    17:00 +5°C° 0 mm 3 mps 727 mmHg 79%
    18:00 +5°C° 0 mm 4 mps 728 mmHg 81%
    19:00 +4°C° 0 mm 4 mps 728 mmHg 83%
    20:00 +3°C° 0.1 mm 5 mps 729 mmHg 84%
    21:00 +3°C° 0.1 mm 6 mps 729 mmHg 84%
    22:00 +3°C° 0.1 mm 6 mps 730 mmHg 84%
    23:00 +3°C° 0.2 mm 7 mps 731 mmHg 86%

    Day after tomorrow, 10 December, Tuesday

    Time Temperature Precipitation Wind Pressure Humidity
    00:00 +2°C° 0.2 mm 7 mps 732 mmHg 88%
    01:00 +2°C° 0.2 mm 7 mps 732 mmHg 90%
    02:00 +2°C° 0.2 mm 7 mps 733 mmHg 86%
    03:00 0°C° 0.2 mm 7 mps 734 mmHg 83%
    04:00 +1°C° 0.2 mm 6 mps 735 mmHg 79%
    05:00 +1°C° 0.1 mm 6 mps 736 mmHg 80%
    06:00 +1°C° 0.1 mm 6 mps 737 mmHg 81%
    07:00 -1°C° 0.1 mm 6 mps 738 mmHg 82%
    08:00 -1°C° 0.1 mm 6 mps 738 mmHg 81%
    09:00 +1°C° 0.1 mm 6 mps 739 mmHg 80%
    10:00 +1°C° 0.1 mm 6 mps 739 mmHg 79%
    11:00 +1°C° 0.1 mm 6 mps 739 mmHg 77%
    12:00 +1°C° 0.1 mm 6 mps 739 mmHg 75%
    13:00 +2°C° 0.1 mm 6 mps 739 mmHg 73%
    14:00 +1°C° 0.1 mm 5 mps 739 mmHg 75%
    15:00 +1°C° 0.1 mm 4 mps 740 mmHg 78%
    16:00 0°C° 0.1 mm 4 mps 740 mmHg 80%
    17:00 +1°C° 0 mm 3 mps 740 mmHg 82%
    18:00 +1°C° 0 mm 2 mps 741 mmHg 84%
    19:00 +2°C° 0 mm 1 mps 741 mmHg 85%
    20:00 +1°C° 0 mm 1 mps 741 mmHg 86%
    21:00 +1°C° 0 mm 1 mps 740 mmHg 87%
    22:00 +1°C° 0 mm 1 mps 740 mmHg 87%
    23:00 0°C° 0 mm 1 mps 740 mmHg 86%

    11 December, Wednesday

    Time Temperature Precipitation Wind Pressure Humidity
    00:00 0°C° 0 mm 1 mps 739 mmHg 85%
    01:00 0°C° 0 mm 1 mps 739 mmHg 84%
    02:00 0°C° 0 mm 1 mps 738 mmHg 84%
    03:00 0°C° 0 mm 1 mps 738 mmHg 83%
    04:00 0°C° 0 mm 1 mps 737 mmHg 83%
    05:00 0°C° 0 mm 1 mps 737 mmHg 82%
    06:00 0°C° 0 mm 1 mps 737 mmHg 81%
    07:00 0°C° 0 mm 1 mps 736 mmHg 80%
    08:00 +1°C° 0 mm 1 mps 736 mmHg 76%
    09:00 +1°C° 0 mm 1 mps 736 mmHg 71%
    10:00 +2°C° 0 mm 1 mps 736 mmHg 66%
    11:00 +3°C° 0 mm 1 mps 735 mmHg 64%
    12:00 +4°C° 0 mm 1 mps 734 mmHg 61%
    13:00 +5°C° 0 mm 1 mps 733 mmHg 58%
    14:00 +4°C° 0 mm 1 mps 733 mmHg 63%
    15:00 +3°C° 0 mm 1 mps 733 mmHg 68%
    16:00 +1°C° 0 mm 0 mps 732 mmHg 73%
    17:00 0°C° 0 mm 0 mps 732 mmHg 73%
    18:00 0°C° 0 mm 0 mps 732 mmHg 73%
    19:00 0°C° 0 mm 0 mps 732 mmHg 73%
    20:00 0°C° 0 mm 0 mps 732 mmHg 73%
    21:00 0°C° 0 mm 0 mps 732 mmHg 72%
    22:00 0°C° 0 mm 0 mps 732 mmHg 71%
    23:00 0°C° 0.2 mm 0 mps 731 mmHg 76%

    12 December, Thursday

    Time Temperature Precipitation Wind Pressure Humidity
    00:00 0°C° 0.2 mm 0 mps 731 mmHg 81%
    01:00 0°C° 0.2 mm 0 mps 730 mmHg 86%
    02:00 +1°C° 0.4 mm 0 mps 730 mmHg 89%
    03:00 +2°C° 0.4 mm 1 mps 730 mmHg 92%
    04:00 +2°C° 0.4 mm 1 mps 729 mmHg 95%
    05:00 +2°C° 0.4 mm 1 mps 729 mmHg 96%
    06:00 +2°C° 0.4 mm 2 mps 729 mmHg 97%
    07:00 +2°C° 0.4 mm 2 mps 729 mmHg 97%
    08:00 +2°C° 0.3 mm 2 mps 730 mmHg 96%
    09:00 +2°C° 0.3 mm 2 mps 730 mmHg 95%
    10:00 +1°C° 0.3 mm 3 mps 730 mmHg 94%
    11:00 +2°C° 0.2 mm 3 mps 730 mmHg 93%
    12:00 +2°C° 0.2 mm 3 mps 730 mmHg 91%
    13:00 +2°C° 0.2 mm 3 mps 730 mmHg 90%
    14:00 +2°C° 0.6 mm 3 mps 730 mmHg 92%
    15:00 0°C° 0.6 mm 4 mps 730 mmHg 94%
    16:00 0°C° 0.6 mm 5 mps 730 mmHg 97%
    17:00 0°C° 0.2 mm 4 mps 731 mmHg 95%
    18:00 0°C° 0.2 mm 4 mps 731 mmHg 93%
    19:00 -1°C° 0.2 mm 4 mps 732 mmHg 91%
    20:00 0°C° 0 mm 3 mps 731 mmHg 90%
    21:00 -1°C° 0 mm 3 mps 731 mmHg 90%
    22:00 -1°C° 0 mm 2 mps 731 mmHg 89%
    23:00 -2°C° 0 mm 2 mps 731 mmHg 88%

    13 December, Friday

    Time Temperature Precipitation Wind Pressure Humidity
    00:00 -2°C° 0 mm 2 mps 730 mmHg 86%
    01:00 0°C° 0 mm 1 mps 729 mmHg 85%
    02:00 -2°C° 0 mm 2 mps 728 mmHg 85%
    03:00 -3°C° 0 mm 2 mps 727 mmHg 84%
    04:00 -4°C° 0 mm 3 mps 726 mmHg 83%
    05:00 -2°C° 0 mm 3 mps 725 mmHg 81%
    06:00 -2°C° 0 mm 3 mps 724 mmHg 78%
    07:00 -1°C° 0 mm 3 mps 723 mmHg 76%
    08:00 -1°C° 0.1 mm 3 mps 722 mmHg 77%
    09:00 -1°C° 0.1 mm 3 mps 721 mmHg 78%
    10:00 0°C° 0.1 mm 3 mps 721 mmHg 79%
    11:00 +1°C° 0.4 mm 2 mps 720 mmHg 82%
    12:00 +2°C° 0.4 mm 2 mps 720 mmHg 84%
    13:00 +3°C° 0.4 mm 2 mps 719 mmHg 87%
    14:00 +3°C° 0.6 mm 2 mps 719 mmHg 89%
    15:00 +3°C° 0.6 mm 2 mps 719 mmHg 91%
    16:00 +2°C° 0.6 mm 3 mps 719 mmHg 92%
    17:00 +2°C° 1 mm 3 mps 720 mmHg 93%
    18:00 +1°C° 1 mm 4 mps 721 mmHg 94%
    19:00 +1°C° 1 mm 4 mps 721 mmHg 95%
    20:00 +1°C° 0.5 mm 4 mps 721 mmHg 93%
    21:00 +1°C° 0.5 mm 4 mps 721 mmHg 91%
    22:00 +1°C° 0.5 mm 4 mps 722 mmHg 90%
    23:00 +1°C° 0.2 mm 4 mps 721 mmHg 91%
    Show more